STARLINK-34636, 64915

Orbit data source: Space-Track

STARLINK-34636, 64915 is a payload satellite owned by SpaceX/Seattle (US) in LEO that was launched on Sat, 26 Jul 2025 UTC via an FALCON 9 launch vehicle from the Air Force Eastern Test Range (AFETR). Payload-class satellites include a variety of spacecraft equipped with specific instruments for various scientific and technological missions. These include communications satellites like Starlink; space stations such as the ISS; scientific satellites like the Hubble; Earth observation satellites from companies like Planet Labs, Umbra, and HawkEye 360; GPS; miniature CubeSats for education and research; and military/defense satellites.

Loading next visibility...
Identifier
64915, 2025-157M
Orbit
LEO
Country
Flag of USUS
Related business
Manufacturer
SpaceX/Seattle
Mission
Operational Commercial Communications
Bus & Motor
STARLINK V2MO, Unknown motor
Mass
575 kg wet, ~530 kg dry
Launch date (UTC)
2025-07-26 (4 months ago)
Launch vehicle
FALCON 9
Launch site
Air Force Eastern Test Range (AFETR)
Object type
Payload
Rocket body
Debris
Shape & HBR
Box + 2 Pan, 17.7 m
Radar Cross Section
36.964 m², Large (>1 m²)

Expand to show TLE details & history
Last TLE update: 16 hours ago

TLE from 16 hours ago
0 STARLINK-34636
1 64915U 25157M   25340.52851230  .00105454  00000-0  26032-2 0  9999
2 64915  53.1588  62.4252 0002329 119.4498 240.6740 15.39698423 21804
Epoch: 2025-12-06T12:41Z
TLE epoch observation values (Epoch: 2025-12-06T12:41:03.462Z)
Latitude
0.00001°
Longitude
156.60583°
Altitude
448.682 km
Speed
7.644 km/s
True Right ascension
04h 09m 42s
True Declination
0° 00' 00"
Sunlit
Object was in full shadow at epoch
Visualization orbit readout
Latitude
Unknown
Longitude
Unknown
Altitude
Unknown
Speed
Unknown
Apparent Right ascension
Unknown
Apparent Declination
Unknown
Sunlit
N/A
Visualization observer readout
Local Sidereal Time
02:29:39
Azimuth
Unknown
Elevation
Unknown
Doppler factor
Unknown
Orbital elements
Apogee altitude
448.848 km
Perigee altitude
445.668 km
Semi-major axis
6,825.395 km
Eccentricity
0.00023
Inclination
53.1588°
RAAN
62.4252°
Arg. of periapsis
119.4498°
True anomaly
240.65074°
Mean anomaly
240.674°
Eccentric anomaly
240.66237°
Mean motion
3.84903 °/min
Orbital period
93.53 mins
BSTAR
0.0026032
Loading maneuver chart data...
Computing Atmospheric mass density...
Loading historical data...
Loading historical data...
Loading historical data...
Loading historical data...
Loading historical data...
Loading historical data...
Loading historical data...

Documentation

Showing up to 5 results
|